FW2663 Weather Reports


Display with metric or nautical units.
time (UTC)temp
F
wind
direction
speed
MPH
gust
MPH
rain 1hr
in
rain 24hr
in
rain mn
in
humidity
%
barometer
mb
20260508012503 53 0 0.0 0.0 0.00 0.12 0.10 95 1010.4
20260508012003 54 0 0.0 0.0 0.00 0.12 0.10 94 1010.1
20260508011503 54 0 0.0 0.0 0.00 0.12 0.10 95 1010.0
20260508011003 54 0 0.0 0.0 0.00 0.12 0.10 95 1010.0
20260508010503 54 0 0.0 0.0 0.00 0.12 0.10 95 1010.0
20260508010003 54 0 0.0 0.0 0.00 0.12 0.10 95 1010.1
20260508005503 54 0 0.0 0.0 0.00 0.12 0.10 95 1010.1
20260508005003 55 0 0.0 0.0 0.00 0.12 0.10 94 1010.0
20260508004524 55 0 0.0 0.0 0.00 0.12 0.10 94 1010.0
20260508004003 55 0 0.0 0.0 0.00 0.12 0.10 94 1010.0
20260508003503 55 0 0.0 0.0 0.00 0.12 0.10 94 1010.0
20260508003003 55 0 0.0 0.0 0.00 0.12 0.10 94 1010.0
20260508002503 55 0 0.0 0.0 0.00 0.12 0.10 94 1010.0
20260508002003 55 0 0.0 0.0 0.00 0.12 0.10 94 1010.0
20260508001503 55 0 0.0 0.0 0.00 0.12 0.10 94 1010.0
20260508001003 55 0 0.0 0.0 0.00 0.12 0.10 93 1009.9
20260508000503 56 0 0.0 0.0 0.00 0.12 0.10 93 1009.8
20260508000003 56 0 0.0 0.0 0.00 0.12 0.10 93 1009.6
20260507235503 56 0 0.0 0.0 0.00 0.12 0.10 93 1009.6
20260507235003 56 0 0.0 0.0 0.00 0.12 0.10 93 1009.5
20260507234524 56 0 0.0 0.0 0.00 0.12 0.10 93 1009.4
20260507234003 56 0 0.0 0.0 0.00 0.12 0.10 92 1009.4
20260507233503 56 0 0.0 0.0 0.00 0.12 0.10 92 1009.2
20260507233003 56 0 0.0 0.0 0.00 0.12 0.10 92 1009.2
20260507232503 56 0 0.0 0.0 0.00 0.12 0.10 93 1009.2
20260507232024 56 0 0.0 0.0 0.00 0.12 0.10 93 1009.1
20260507231503 56 0 0.0 0.0 0.00 0.12 0.10 93 1009.1
20260507231003 56 0 0.0 0.0 0.00 0.12 0.10 93 1008.9
20260507230503 56 0 0.0 0.0 0.00 0.12 0.10 93 1009.0
20260507230024 56 0 0.0 0.0 0.00 0.12 0.10 92 1009.1
20260507225503 56 0 0.0 0.0 0.00 0.12 0.10 92 1009.0
20260507225024 56 0 0.0 0.0 0.00 0.12 0.10 92 1009.1
20260507224504 56 0 0.0 0.0 0.00 0.12 0.10 92 1009.0
20260507224003 56 0 0.0 0.0 0.00 0.12 0.10 92 1009.0
20260507223524 56 144 0.0 3.0 0.00 0.12 0.10 92 1009.0
20260507223024 56 144 0.0 3.0 0.00 0.12 0.10 92 1008.9
20260507222524 56 145 0.0 4.0 0.00 0.12 0.10 92 1008.9
20260507222003 56 147 1.0 8.0 0.00 0.12 0.10 92 1008.9
20260507221503 56 149 1.0 8.0 0.00 0.12 0.10 92 1009.0
20260507221003 56 155 1.0 7.0 0.00 0.12 0.10 92 1008.8
20260507220503 56 155 1.0 7.0 0.00 0.12 0.10 92 1008.9
20260507220003 56 158 0.0 7.0 0.00 0.12 0.10 92 1008.8
20260507215503 56 158 0.0 7.0 0.00 0.12 0.10 93 1008.9
20260507215003 56 0 0.0 0.0 0.00 0.12 0.10 93 1009.1
20260507214503 56 0 0.0 0.0 0.00 0.12 0.10 92 1009.0
20260507214003 56 0 0.0 0.0 0.00 0.12 0.10 92 1009.0
20260507213503 56 0 0.0 0.0 0.00 0.12 0.10 93 1009.1
20260507213003 56 0 0.0 0.0 0.00 0.12 0.10 92 1009.0
20260507212506 56 0 0.0 0.0 0.00 0.12 0.10 93 1009.0
20260507212003 56 0 0.0 0.0 0.00 0.12 0.10 92 1008.8
20260507211503 56 160 0.0 5.0 0.00 0.12 0.10 92 1008.9
20260507211003 56 160 0.0 5.0 0.00 0.12 0.10 91 1008.8
20260507210524 57 161 0.0 3.0 0.00 0.12 0.10 91 1008.7
20260507210003 56 0 0.0 0.0 0.00 0.12 0.10 91 1008.7
20260507205503 56 0 0.0 0.0 0.00 0.12 0.10 91 1008.7
20260507205003 56 0 0.0 0.0 0.00 0.12 0.10 93 1008.8
20260507204503 56 0 0.0 0.0 0.00 0.12 0.10 92 1008.7
20260507204003 56 0 0.0 0.0 0.00 0.12 0.10 93 1008.7
20260507203503 56 0 0.0 0.0 0.00 0.12 0.10 93 1008.6
20260507203003 55 0 0.0 0.0 0.00 0.12 0.10 93 1008.7
20260507202503 55 0 0.0 0.0 0.00 0.12 0.10 94 1008.8
20260507202003 55 161 0.0 3.0 0.00 0.12 0.10 94 1008.9
20260507201503 55 161 0.0 3.0 0.00 0.12 0.10 93 1008.9
20260507201003 55 0 0.0 0.0 0.00 0.12 0.10 94 1009.3
20260507200503 54 0 0.0 0.0 0.00 0.12 0.10 94 1009.3
20260507200003 54 0 0.0 0.0 0.00 0.12 0.10 93 1009.4
20260507195503 54 0 0.0 0.0 0.00 0.12 0.10 93 1009.5
20260507195003 54 0 0.0 0.0 0.00 0.12 0.10 94 1009.4
20260507194503 54 0 0.0 0.0 0.01 0.12 0.10 93 1009.3
20260507194003 54 0 0.0 0.0 0.01 0.12 0.10 93 1009.3
20260507193503 54 0 0.0 0.0 0.01 0.12 0.10 94 1009.4
20260507193003 54 0 0.0 0.0 0.01 0.12 0.10 94 1009.6
20260507192524 54 0 0.0 0.0 0.01 0.12 0.10 94 1009.5
20260507192003 54 0 0.0 0.0 0.01 0.12 0.10 93 1009.8
20260507191524 54 0 0.0 0.0 0.01 0.12 0.10 93 1009.7
20260507191003 54 0 0.0 0.0 0.01 0.12 0.10 93 1009.8
20260507190503 54 0 0.0 0.0 0.01 0.12 0.10 93 1010.0
20260507190004 54 0 0.0 0.0 0.02 0.12 0.10 95 1009.9
20260507185503 54 107 0.0 3.0 0.03 0.12 0.10 94 1010.0
20260507185003 54 107 0.0 3.0 0.03 0.12 0.10 94 1010.0
20260507184524 54 0 0.0 0.0 0.02 0.11 0.09 93 1009.9
20260507184003 54 0 0.0 0.0 0.02 0.11 0.09 95 1009.7
20260507183524 54 0 0.0 0.0 0.02 0.11 0.09 94 1009.9
20260507183003 54 0 0.0 0.0 0.02 0.11 0.09 94 1010.0
20260507182503 54 0 0.0 0.0 0.02 0.11 0.09 94 1010.1
20260507182024 54 0 0.0 0.0 0.02 0.11 0.09 93 1010.1
20260507181503 54 0 0.0 0.0 0.02 0.11 0.09 93 1010.0
20260507181025 54 0 0.0 0.0 0.02 0.11 0.09 94 1010.0
20260507180503 54 0 0.0 0.0 0.02 0.11 0.09 93 1010.2
20260507180003 54 0 0.0 0.0 0.01 0.10 0.08 93 1010.1
20260507175525 54 0 0.0 0.0 0.00 0.09 0.07 93 1010.0
20260507175003 54 98 0.0 5.0 0.00 0.09 0.07 93 1010.0
20260507174503 54 107 1.0 7.0 0.00 0.09 0.07 93 1009.8
20260507174003 54 98 2.0 7.0 0.00 0.09 0.07 92 1009.8
20260507173503 54 91 2.0 7.0 0.00 0.09 0.07 92 1009.8
20260507173003 54 87 1.0 9.0 0.00 0.09 0.07 92 1009.6
20260507172503 54 83 1.0 9.0 0.00 0.09 0.07 91 1009.8
20260507172003 54 78 1.0 8.0 0.00 0.10 0.07 91 1009.9
20260507171524 55 61 0.0 8.0 0.00 0.10 0.07 92 1009.8
20260507171003 55 0 0.0 0.0 0.00 0.10 0.07 92 1009.9
20260507170524 54 104 1.0 4.0 0.00 0.10 0.07 93 1009.9
20260507170003 54 105 1.0 5.0 0.00 0.10 0.07 93 1010.0
20260507165503 54 108 1.0 5.0 0.00 0.11 0.07 93 1010.0
20260507165024 54 100 1.0 5.0 0.00 0.11 0.07 93 1010.1
20260507164503 54 96 2.0 9.0 0.00 0.11 0.07 93 1010.2
20260507164024 54 92 2.0 9.0 0.00 0.11 0.07 93 1010.1
20260507163503 54 87 2.0 7.0 0.00 0.11 0.07 93 1010.1
20260507163003 54 91 1.0 7.0 0.00 0.11 0.07 93 1010.2
20260507162503 54 70 0.0 7.0 0.00 0.11 0.07 94 1010.2
20260507162003 54 64 1.0 8.0 0.00 0.11 0.07 94 1010.2
20260507161503 54 75 1.0 10.0 0.00 0.11 0.07 93 1010.2
20260507161003 54 77 1.0 10.0 0.00 0.11 0.07 94 1010.1
20260507160524 54 63 0.0 5.0 0.00 0.11 0.07 94 1010.2
20260507160024 54 78 1.0 8.0 0.00 0.11 0.07 94 1010.4
20260507155524 54 79 1.0 8.0 0.00 0.11 0.07 95 1010.4
20260507155003 54 72 1.0 5.0 0.00 0.11 0.07 95 1010.4
20260507154503 54 77 1.0 8.0 0.00 0.11 0.07 95 1010.5
20260507154024 54 77 1.0 8.0 0.00 0.11 0.07 95 1010.6
20260507153504 54 56 1.0 7.0 0.00 0.11 0.07 95 1010.6
20260507153003 54 70 1.0 7.0 0.00 0.11 0.07 95 1010.5
20260507152503 54 77 1.0 7.0 0.00 0.11 0.07 95 1010.4
20260507152024 54 78 1.0 5.0 0.00 0.11 0.07 95 1010.5
20260507151503 54 89 1.0 6.0 0.00 0.11 0.07 95 1010.4
20260507151003 54 93 0.0 6.0 0.01 0.11 0.07 95 1010.4
20260507150504 54 96 0.0 5.0 0.01 0.12 0.07 95 1010.6
20260507150025 54 96 0.0 5.0 0.01 0.12 0.07 95 1010.5
20260507145503 54 88 0.0 5.0 0.01 0.12 0.07 95 1010.5
20260507145003 54 76 1.0 11.0 0.01 0.12 0.07 95 1010.2
20260507144503 54 73 2.0 11.0 0.01 0.12 0.07 95 1010.3
20260507144003 54 69 2.0 10.0 0.01 0.12 0.07 94 1010.3
20260507143503 54 65 2.0 8.0 0.01 0.12 0.07 95 1010.3
20260507143003 54 70 1.0 8.0 0.01 0.12 0.07 95 1010.3
20260507142503 55 76 1.0 13.0 0.01 0.12 0.07 95 1010.1
20260507142003 55 69 2.0 13.0 0.02 0.12 0.07 94 1010.1
20260507141503 55 77 2.0 9.0 0.02 0.13 0.07 95 1010.0
20260507141003 55 88 2.0 10.0 0.01 0.12 0.06 94 1010.5
20260507140503 55 85 1.0 10.0 0.01 0.13 0.06 94 1010.5
20260507140003 55 76 1.0 7.0 0.01 0.14 0.06 94 1010.4
20260507135503 56 79 2.0 7.0 0.01 0.14 0.06 95 1010.4
20260507135003 56 72 2.0 7.0 0.01 0.14 0.06 95 1010.0
20260507134503 56 74 2.0 7.0 0.01 0.15 0.06 94 1010.0
20260507134003 56 95 1.0 7.0 0.01 0.15 0.06 94 1010.3
20260507133524 56 93 2.0 7.0 0.01 0.15 0.06 94 1010.4
20260507133003 57 82 1.0 6.0 0.01 0.15 0.06 95 1010.6
20260507132524 57 78 1.0 7.0 0.02 0.16 0.06 96 1010.6
20260507132003 57 75 2.0 11.0 0.01 0.15 0.05 96 1010.4
20260507131503 58 72 3.0 11.0 0.01 0.16 0.05 96 1010.5
20260507131024 58 67 1.0 7.0 0.01 0.16 0.05 96 1010.5
20260507130503 58 65 1.0 11.0 0.01 0.16 0.05 96 1010.4
20260507130003 58 59 1.0 11.0 0.01 0.16 0.05 96 1010.3
20260507125503 59 62 0.0 9.0 0.01 0.16 0.05 96 1010.2
20260507125003 59 70 1.0 9.0 0.01 0.16 0.05 96 1010.2
20260507124503 60 74 1.0 9.0 0.01 0.16 0.05 96 1010.0
20260507124003 60 86 0.0 9.0 0.01 0.16 0.05 96 1010.0
20260507123503 60 90 0.0 5.0 0.01 0.16 0.05 96 1009.9
20260507123003 60 91 0.0 5.0 0.01 0.16 0.05 96 1009.8
20260507122524 60 90 0.0 3.0 0.00 0.15 0.04 96 1009.6
20260507122003 60 0 0.0 0.0 0.00 0.15 0.04 96 1009.7
20260507121503 60 0 0.0 0.0 0.00 0.16 0.04 96 1009.7
20260507121003 61 0 0.0 0.0 0.00 0.16 0.04 96 1009.4
20260507120503 61 0 0.0 0.0 0.00 0.16 0.04 97 1009.4
20260507120004 61 0 0.0 0.0 0.00 0.17 0.04 97 1009.6
20260507115503 62 0 0.0 0.0 0.00 0.17 0.04 98 1009.6
20260507115003 62 0 0.0 0.0 0.00 0.17 0.04 98 1009.5
20260507114503 62 0 0.0 0.0 0.00 0.17 0.04 98 1009.4
20260507114003 62 0 0.0 0.0 0.00 0.17 0.04 98 1009.4
20260507113503 62 0 0.0 0.0 0.00 0.17 0.04 98 1009.3
20260507113004 62 0 0.0 0.0 0.00 0.17 0.04 98 1009.2
20260507112503 62 0 0.0 0.0 0.00 0.17 0.04 98 1009.2
20260507112003 62 0 0.0 0.0 0.00 0.17 0.04 98 1009.3
20260507111504 62 0 0.0 0.0 0.00 0.17 0.04 98 1009.1
20260507111003 62 0 0.0 0.0 0.00 0.17 0.04 98 1009.2
20260507110503 62 0 0.0 0.0 0.00 0.17 0.04 98 1009.0
20260507110003 62 0 0.0 0.0 0.00 0.17 0.04 98 1008.9
20260507105524 62 0 0.0 0.0 0.00 0.17 0.04 98 1009.1
20260507105003 62 0 0.0 0.0 0.00 0.17 0.04 98 1009.1
20260507104504 61 0 0.0 0.0 0.00 0.17 0.04 98 1009.0
20260507104003 61 0 0.0 0.0 0.00 0.17 0.04 98 1008.9
20260507103503 62 0 0.0 0.0 0.00 0.17 0.04 98 1008.7
20260507103003 62 0 0.0 0.0 0.00 0.17 0.04 98 1008.9
20260507102503 62 0 0.0 0.0 0.00 0.17 0.04 98 1008.6
20260507102003 61 0 0.0 0.0 0.00 0.17 0.04 98 1008.1
20260507101524 61 0 0.0 0.0 0.00 0.17 0.04 98 1008.7
20260507101003 61 0 0.0 0.0 0.00 0.17 0.04 98 1008.6
20260507100503 62 0 0.0 0.0 0.00 0.17 0.04 98 1008.3
20260507100003 62 0 0.0 0.0 0.00 0.17 0.04 98 1008.6
20260507095503 62 0 0.0 0.0 0.00 0.17 0.04 98 1008.5
20260507095003 62 0 0.0 0.0 0.00 0.17 0.04 98 1008.6
20260507094503 62 0 0.0 0.0 0.00 0.17 0.04 98 1008.7
20260507094003 62 0 0.0 0.0 0.00 0.17 0.04 98 1008.5
20260507093503 62 0 0.0 0.0 0.00 0.17 0.04 98 1008.6
20260507093003 62 0 0.0 0.0 0.00 0.17 0.04 98 1008.3
20260507092524 62 0 0.0 0.0 0.00 0.17 0.04 98 1008.2
20260507092003 62 0 0.0 0.0 0.00 0.17 0.04 98 1008.1
20260507091503 62 0 0.0 0.0 0.00 0.17 0.04 98 1008.3
20260507091003 62 0 0.0 0.0 0.00 0.17 0.04 98 1008.4
20260507090503 62 0 0.0 0.0 0.00 0.17 0.04 98 1008.7
20260507090003 62 0 0.0 0.0 0.00 0.17 0.04 98 1008.8
20260507085503 62 0 0.0 0.0 0.00 0.17 0.04 98 1008.8
20260507085024 62 0 0.0 0.0 0.00 0.17 0.04 98 1008.6
20260507084503 62 0 0.0 0.0 0.00 0.17 0.04 98 1008.6
20260507084003 63 0 0.0 0.0 0.00 0.17 0.04 97 1008.6
20260507083503 63 0 0.0 0.0 0.00 0.17 0.04 98 1008.7
20260507083003 63 0 0.0 0.0 0.00 0.17 0.04 98 1008.7
20260507082503 63 0 0.0 0.0 0.00 0.17 0.04 98 1008.8
20260507082003 63 0 0.0 0.0 0.00 0.17 0.04 98 1008.9
20260507081503 63 0 0.0 0.0 0.00 0.17 0.04 98 1008.8
20260507081003 63 0 0.0 0.0 0.00 0.17 0.04 98 1008.7
20260507080503 63 0 0.0 0.0 0.00 0.17 0.04 98 1008.8
20260507080003 63 0 0.0 0.0 0.00 0.17 0.04 98 1008.7
20260507075503 63 0 0.0 0.0 0.00 0.17 0.04 98 1008.7
20260507075003 63 0 0.0 0.0 0.00 0.17 0.04 98 1008.9
20260507074503 63 0 0.0 0.0 0.00 0.17 0.04 98 1009.1
20260507074003 63 0 0.0 0.0 0.00 0.17 0.04 98 1008.9
20260507073503 63 0 0.0 0.0 0.00 0.17 0.04 98 1008.6
20260507073003 63 0 0.0 0.0 0.00 0.17 0.04 98 1008.5
20260507072503 63 0 0.0 0.0 0.00 0.17 0.04 98 1008.2
20260507072003 63 0 0.0 0.0 0.00 0.17 0.04 98 1008.4
20260507071503 63 0 0.0 0.0 0.00 0.17 0.04 98 1008.4
20260507071024 63 0 0.0 0.0 0.00 0.17 0.04 98 1008.4
20260507070503 63 0 0.0 0.0 0.00 0.17 0.04 97 1008.8
20260507070024 63 0 0.0 0.0 0.00 0.17 0.04 97 1008.7
20260507065503 63 0 0.0 0.0 0.01 0.17 0.04 97 1008.5
20260507065003 63 0 0.0 0.0 0.01 0.17 0.04 97 1008.4
20260507064503 63 0 0.0 0.0 0.01 0.17 0.04 97 1008.5
20260507064003 63 0 0.0 0.0 0.01 0.17 0.04 97 1008.4
20260507063503 63 0 0.0 0.0 0.01 0.17 0.04 97 1008.3
20260507063003 63 0 0.0 0.0 0.02 0.17 0.04 97 1008.4
20260507062524 63 0 0.0 0.0 0.02 0.17 0.04 97 1008.4
20260507062025 63 0 0.0 0.0 0.03 0.17 0.04 97 1008.7
20260507061503 63 0 0.0 0.0 0.03 0.17 0.04 97 1008.6
20260507061004 63 0 0.0 0.0 0.03 0.17 0.04 97 1008.7
20260507060503 63 0 0.0 0.0 0.03 0.17 0.04 97 1008.8
20260507060003 64 0 0.0 0.0 0.03 0.17 0.04 97 1008.8
20260507055503 64 191 0.0 2.0 0.02 0.16 0.03 96 1008.7
20260507055003 64 191 0.0 2.0 0.02 0.16 0.03 96 1008.9
20260507054503 64 0 0.0 0.0 0.02 0.16 0.03 96 1008.9
20260507054003 64 0 0.0 0.0 0.02 0.16 0.03 97 1009.0
20260507053503 64 0 0.0 0.0 0.02 0.16 0.03 97 1009.2
20260507053003 64 188 0.0 4.0 0.01 0.15 0.02 96 1009.2
20260507052503 64 188 0.0 4.0 0.01 0.15 0.02 96 1009.3
20260507052003 64 184 0.0 3.0 0.00 0.14 0.01 96 1009.1
20260507051503 64 186 0.0 3.0 0.00 0.14 0.01 97 1009.0
20260507051003 64 189 0.0 3.0 0.01 0.14 0.01 97 1008.9
20260507050503 65 0 0.0 0.0 0.01 0.14 0.01 97 1008.9
20260507050003 65 0 0.0 0.0 0.01 0.14 0.01 97 1008.9
20260507045503 65 0 0.0 0.0 0.01 0.14 0.01 97 1009.0
20260507045003 65 0 0.0 0.0 0.01 0.14 0.01 97 1009.0
20260507044503 65 0 0.0 0.0 0.01 0.14 0.01 96 1008.8
20260507044024 65 0 0.0 0.0 0.01 0.14 0.01 96 1008.6
20260507043524 65 0 0.0 0.0 0.02 0.14 0.01 96 1008.8
20260507043003 65 0 0.0 0.0 0.02 0.14 0.01 97 1008.8
20260507042503 65 0 0.0 0.0 0.03 0.14 0.01 96 1008.9
20260507042003 65 0 0.0 0.0 0.03 0.14 0.01 96 1009.0
20260507041503 65 0 0.0 0.0 0.03 0.14 0.01 96 1009.2
20260507041003 65 0 0.0 0.0 0.02 0.13 0.00 96 1009.3
20260507040503 65 0 0.0 0.0 0.02 0.13 0.00 96 1009.6
20260507040004 65 0 0.0 0.0 0.02 0.13 0.00 96 1009.8
20260507035503 65 0 0.0 0.0 0.02 0.13 0.13 96 1010.2
20260507035003 65 0 0.0 0.0 0.02 0.13 0.13 96 1010.2
20260507034503 65 0 0.0 0.0 0.02 0.13 0.13 96 1009.9
20260507034003 65 0 0.0 0.0 0.02 0.13 0.13 95 1010.2
20260507033524 66 0 0.0 0.0 0.01 0.12 0.12 95 1010.7
20260507033003 66 0 0.0 0.0 0.01 0.12 0.12 95 1010.5
20260507032503 66 0 0.0 0.0 0.00 0.11 0.11 95 1010.5
20260507032003 66 0 0.0 0.0 0.00 0.11 0.11 94 1010.5
20260507031503 66 0 0.0 0.0 0.00 0.11 0.11 94 1009.8
20260507031003 66 0 0.0 0.0 0.00 0.11 0.11 94 1009.7
20260507030503 66 0 0.0 0.0 0.00 0.11 0.11 94 1009.6
20260507030003 66 0 0.0 0.0 0.00 0.11 0.11 93 1009.8
20260507025503 66 0 0.0 0.0 0.00 0.11 0.11 93 1010.6
20260507025003 66 0 0.0 0.0 0.00 0.11 0.11 92 1010.4
20260507024503 66 0 0.0 0.0 0.00 0.11 0.11 92 1010.3
20260507024024 67 0 0.0 0.0 0.00 0.11 0.11 92 1010.1
20260507023503 67 184 0.0 5.0 0.00 0.11 0.11 92 1010.0
20260507023024 67 197 0.0 6.0 0.00 0.11 0.11 91 1009.7
20260507022503 67 207 0.0 6.0 0.00 0.11 0.11 91 1009.4
20260507022003 66 227 0.0 5.0 0.00 0.11 0.11 92 1009.3
20260507021503 66 236 0.0 5.0 0.00 0.11 0.11 92 1009.4
20260507021024 66 0 0.0 0.0 0.00 0.11 0.11 92 1009.3
20260507020524 66 190 0.0 3.0 0.00 0.11 0.11 92 1008.8
20260507020003 66 190 0.0 3.0 0.00 0.11 0.11 92 1008.8
20260507015503 66 210 0.0 5.0 0.00 0.11 0.11 92 1008.8
20260507015004 66 210 0.0 5.0 0.00 0.11 0.11 92 1008.5
20260507014503 66 0 0.0 0.0 0.00 0.11 0.11 92 1008.9
20260507014003 66 0 0.0 0.0 0.00 0.11 0.11 92 1009.1
20260507013503 66 0 0.0 0.0 0.00 0.11 0.11 92 1009.2
20260507013003 66 0 0.0 0.0 0.00 0.11 0.11 91 1009.2